FENGYUN 1C DEB

Satellite information

Favourite Embed

Satellite Type and Status

DEBRISIN ORBIT

Key statistics

Satellite FENGYUN 1C DEB at a glance.

Uptime

9658

Days in orbit

Revolutions

≈ 14.2

Per day

Orbit

SSO

Sun Synchronous Orbit

Inclination

99.0

Latest

Satellite identification and parameters

Extended collection of information and parameters for FENGYUN 1C DEB.

Object identification

Identified? True

Debris? True

Object name: FENGYUN 1C DEB

International designator: 1999-025ASB

Object number (NORAD): 30717

Object ID (CCSDS): 30717

Country: PEOPLES REPUBLIC OF CHINA (PRC)

Current information (Y/N): Y

RCS size: SMALL

Orbital parameters

Period: 101.403 minutes

Inclination: 99.021 deg

SMA: 7203.226 km

Apoapsis: 860.122 km

Periapsis: 790.059 km

RAAN: 358.7871 deg

Eccentricy: 0.00486326

Argument of periapsis: 65.4898 deg

Mean anomaly: 295.1337 deg

Mean motion: 14.20078137 rev/day

Mean motion (dot): 0.00003833 rev/day2

B* drag term: 0.001798845 1/REarth

Two-line elements (TLE)

Creation date: Oct. 16, 2025, 6:34 p.m.

Reference frame: TEME

Reference center: EARTH

Epoch: Oct. 16, 2025, 3:38 a.m. UTC

TLE line 0: 0 FENGYUN 1C DEB

TLE line 1: 1 30717U 99025ASB 25289.15177383 .00003833 00000-0 17988-2 0 9996

TLE line 2: 2 30717 99.0210 358.7871 0048633 65.4898 295.1337 14.20078137957198

Live tracking on map

Real-time ground track for satellite FENGYUN 1C DEB.

In-orbit conjunctions

A list of the most updated potential collisions computed for object FENGYUN 1C DEB.

Target Orbit TCA Probability of collision Miss distance Type
METEOR 1-15 LEO 2025-04-09 08:20:04 0.0001392572 438.0 (m) PAYLOAD
SL-16 DEB LEO 2024-11-15 03:09:44 0.0001945663 241.0 (m) DEBRIS
IRIDIUM 33 DEB LEO 2024-09-25 08:29:03 0.0001659314 236.0 (m) DEBRIS

Associated space launch

Chinese polar orbiting meteorological satellite

FENGYUN 1C DEB was lifted into orbit during the mission ‘Long March 4B | Feng Yun 1C’, on board a Long March 4B space rocket.

The launch took place on May 10, 1999, 1:33 a.m. from Launch Complex 7.

For more information about the launch, click the button.

Launch to space Long March 4B | Feng Yun 1C
Long March 4B | Feng Yun 1C

Agency: N/A

Status: Launch Successful

Launch date: May 10, 1999, 1:33 a.m. UTC

Rocket: Long March 4B

Launch pad: Launch Complex 7

Location: Taiyuan Satellite Launch Center, People's Republic of China

...

Latest news about this satellite

There are no fresh news available about this satellite. Check back as we update our databases every day.


Newsletter sign-up

Weekly statistics, charts and insights to help you stay on top of the space industry.